www.pogodaiklimat.ru

Погода и климат >> Архив погоды >> Ирак >> Karbalaa


ПОГОДА в Karbalaa

  • Прогноз погоды в Karbalaa
  • Монитор погоды в Karbalaa
  • Климат города

АРХИВ ПОГОДЫ в Karbalaa

Время (UTC), дата Ветер
(напр.,м/с)
 
Видим.   Явления Облачность Т
(С)
Тd
(С)
f
(%)
Тe
(С)
Тes
(С)
Комфортность P
(гПа)
Po
(гПа)
Тmin
(С)
Tmax
(С)
R
(мм)
R24
(мм)
S
(см)
09 13.06 В 2 10 км ясно +40.0 +13.1 20 +40 +61 опасность
солнечного
удара
1000.3 1000.0
12 13.06 В 3 10 км 3/3 840 м
[Cu hum]
+41.8 +12.9 18 +41 +49 опасность
перегрева
998.4 998.0
15 13.06 В 4 10 км 1/1 840 м
[Cu hum]
+40.5 +12.4 19 +40 +41 очень
жарко
997.1 997.0
18 13.06 штиль 0 10 км ясно +35.6 +14.6 29 +37 +37 душно 997.3 997.0 +42.4
21 13.06 штиль 0 10 км ясно +33.6 +14.1 31 +35 +35 душно 997.6 998.0
00 14.06 С 5 10 км ясно +31.2 +12.3 31 +32 +32 жарко 997.5 998.0
06 14.06 С 6 6000 м пыль ясно +34.4 +14.6 31 +36 +41 душно 999.6 1000.0 +29.3
09 14.06 С 12 800 м пыльная буря ?/? +39.0 +14.4 23 +40 +40 очень
душно
1000.6 1001.0
12 14.06 С 8 10 км 1/1 900 м
[Cu hum]
+41.0 +14.0 20 +41 +43 опасность
перегрева
1000.2 1000.0
18 14.06 штиль 0 10 км ясно +36.4 +15.1 28 +38 +38 очень
душно
1001.6 1002.0 +41.4
21 14.06 штиль 0 10 км ясно +32.8 +14.4 33 +34 +34 очень
жарко
1002.8 1003.0
00 15.06 штиль 0 10 км ясно +29.8 +14.8 40 +32 +32 душно 1003.3 1003.0
03 15.06 штиль 0 10 км ясно +28.8 +14.9 43 +31 +33 жарко 1003.9 1004.0
06 15.06 С 3 10 км ясно +34.1 +17.3 37 +38 +48 очень
душно
1005.5 1006.0 +28.3
09 15.06 С 4 10 км ясно +39.2 +13.0 21 +39 +54 опасность
солнечного
удара
1005.1 1005.0
12 15.06 С 4 10 км 1/1 900 м
[Cu hum]
+40.6 +10.9 17 +39 +47 очень
жарко
1004.0 1004.0
15 15.06 С 3 10 км ясно +38.6 +12.2 21 +38 +39 очень
жарко
1003.0 1003.0
21 15.06 В 2 10 км ясно +32.8 +13.8 32 +34 +34 очень
жарко
1003.8 1004.0
03 16.06 штиль 0 10 км ясно +29.3 +15.9 44 +32 +33 душно 1004.4 1004.0
06 16.06 С 3 10 км ясно +35.2 +14.2 28 +36 +47 очень
жарко
1006.0 1006.0 +29.0
09 16.06 З 5 10 км 4/4 840 м
[Cu med, cong]
+39.8 +10.5 17 +38 +45 очень
жарко
1005.5 1006.0
12 16.06 Ю 5 10 км 1/1 840 м
[Cu hum]
+41.2 +8.8 14 +39 +45 очень
жарко
1004.5 1005.0
15 16.06 СЗ 6 10 км ясно +39.9 +9.5 16 +38 +39 очень
жарко
1004.3 1004.0
18 16.06 СЗ 3 10 км ясно +36.5 +7.9 17 +34 +34 очень
жарко
1005.5 1006.0 +42.0
21 16.06 С 3 10 км ясно +34.2 +9.5 22 +33 +33 жарко 1006.2 1006.0
03 17.06 штиль 0 10 км ясно +30.6 +11.1 30 +31 +32 жарко 1006.0 1006.0
06 17.06 З 6 10 км ясно +34.0 +11.8 26 +34 +39 очень
жарко
1006.9 1007.0 +29.5
09 17.06 СЗ 6 10 км ясно +41.6 +9.3 15 +40 +49 очень
жарко
1005.8 1006.0
12 17.06 С 5 10 км ясно +43.4 +10.3 14 +42 +49 опасность
перегрева
1004.3 1004.0
15 17.06 СЗ 5 10 км ясно +42.5 +10.6 15 +41 +42 опасность
перегрева
1003.2 1003.0
18 17.06 З 2 10 км ясно +37.2 +15.0 27 +38 +38 душно 1003.3 1003.0 +43.6
21 17.06 ЮЗ 2 10 км ясно +34.0 +14.7 31 +35 +35 очень
жарко
1002.9 1003.0
06 18.06 СЗ 10 10 км ясно +34.2 +13.1 28 +35 +35 очень
жарко
1004.7 1005.0 +30.8
09 18.06 СЗ 9 10 км ясно +39.0 +13.1 22 +39 +41 очень
жарко
1004.0 1004.0
12 18.06 СЗ 10 10 км ясно +40.5 +10.7 17 +39 +40 очень
жарко
1003.0 1003.0
15 18.06 СЗ 6 10 км ясно +39.5 +11.1 18 +38 +39 очень
жарко
1002.7 1003.0
18 18.06 СЗ 4 10 км ясно +35.8 +10.1 21 +35 +35 очень
жарко
1004.0 1004.0 +41.5
21 18.06 З 5 10 км ясно +33.0 +11.2 26 +33 +33 жарко 1004.0 1004.0
03 19.06 С 4 10 км ясно +29.4 +12.6 36 +31 +31 жарко 1005.2 1005.0
06 19.06 С 3 10 км ясно +34.0 +14.2 30 +35 +46 очень
жарко
1006.9 1007.0 +29.0
09 19.06 штиль 0 10 км ясно +39.3 +13.6 22 +40 +69 опасность
солнечного
удара
1006.8 1007.0
12 19.06 С 2 10 км ясно +41.7 +12.2 18 +41 +54 опасность
перегрева
1005.5 1006.0
18 19.06 С 1 10 км ясно +37.0 +13.2 24 +37 +37 очень
жарко
1006.0 1006.0 +42.0
21 19.06 штиль 0 10 км ясно +33.3 +14.1 31 +34 +34 очень
жарко
1006.1 1006.0
00 20.06 штиль 0 10 км ясно +32.5 +11.9 28 +33 +33 жарко 1005.9 1006.0
03 20.06 штиль 0 10 км ясно +11.8 -1 -0 1007.3 1007.0
06 20.06 штиль 0 10 км ясно +34.5 +13.1 28 +35 +52 опасность
солнечного
удара
1008.3 1008.0 +29.3

 

Местоположение метеостанции Karbalaa (Ирак): широта 32.62 долгота 44.02 высота над уровнем моря 29 м.

В архиве по умолчанию представлена погода в Karbalaa за последнюю неделю. Архивные данные за месяц целиком и за предыдущие месяцы, начиная с января 2011 года, Вы можете получить, выбрав интересующий диапазон дат из раскрывающегося списка и нажав кнопку "Ввод!".


*Определитесь, кто Вы:
робот инопланетянин человек

Внимание! Время в таблицах - всемирное. Для получения местного времени необходимо прибавить поправку, которая в Karbalaa равна 3 ч.

Смотрите также архив погоды в соседних городах и на ближайших метеорологических станциях:

Погода в Hella (Ирак) (45 км)
Погода в Baghdad (Ирак) (71 км)
Погода в Najaf (Ирак) (77 км)
Погода в Azizyah (Ирак) (104 км)
Погода в Ramadi (Ирак) (113 км)
Погода в Diwaniya (Ирак) (115 км)
Погода в Heet (Ирак) (115 км)
Погода в Ayn Al-Tamar (Ирак) (122 км)
Погода в Al-Khalis (Ирак) (143 км)
Погода в Ubaydah Bin Al Jarrah (Ирак) (163 км)

Пояснения к столбцам:

Ветер - указаны скорость ветра в м/с - средняя за 10 мин, порывы в срок и между сроками (в фигурных скобках) и направление, откуда дует ветер: С - северный, СВ - северо-восточный, В - восточный, ЮВ - юго-восточный, Ю - южный, ЮЗ - юго-западный, З - западный, СЗ - северо-западный.
Видимость - горизонтальная дальность видимости в метрах или километрах. При видимости от 1 до 10 км при отсутствии осадков обычно наблюдается дымка, при ухудшении видимости до 1 км и менее - туман. В сухую погоду видимость может ухудшаться дымом, пылью или мглою.
Явления - указаны атмосферные явления, наблюдавшиеся в срок или в последний час перед сроком; фигурными скобками обозначены явления, наблюдавшиеся между сроками (за 1-3 часа до срока); квадратными скобками обозначены град или гололедные отложения с указанием их диаметра в мм.
Облачность - указаны через наклонную черту общая и нижняя облачность в баллах и высота нижней границы облаков в метрах; квадратными скобками обозначены формы облаков: Ci - перистые, Cs - перисто-слоистые, Cc - перисто-кучевые, Ac - высококучевые, As - высокослоистые, Sc - слоисто-кучевые, Ns - слоисто-дождевые, Cu - кучевые, Cb - кучево-дождевые. Подробнее классификацию облаков см. в Атласе облаков (PDF).
T - Температура воздуха - температура, измеренная на высоте 2 м над землей.
Td - Температура точки росы - температура, при понижении до которой содержащийся в воздухе водяной пар достигнет насыщения.
f - Относительная влажность воздуха - влажноcть воздуха, измеренная на высоте 2 м над землей.
Te - Эффективная температура - температура, которую ощущает одетый по сезону человек в тени. Характеристика душности погоды. При расчете учитывается влияние влажности воздуха и скорости ветра на теплоощущения человека.
Tes - Эффективная температура на солнце - температура, которую ощущает человек, с поправкой на солнечный нагрев. Характеристика знойности погоды. Зависит от высоты солнца над горизонтом, облачности и скорости ветра. Ночью, в пасмурную погоду, а также при ветре 12 м/с и более поправка равна нулю.
P - Атмосферное давление - приведенное к уровню моря атмосферное давление.
Po - Атмосферное давление - измеренное на уровне метеостанции атмосферное давление.
Tmin - Минимальная температура - минимум температуры воздуха на высоте 2 м над землей.
Tmax - Максимальная температура - максимум температуры воздуха на высоте 2 м над землей.
R - Количество осадков - Количество выпавших осадков за период времени, мм. При наведении курсора мыши на число - период времени, за который выпало указанное количество осадков.
R24 - Количество осадков - Количество выпавших осадков за 24 часа, мм.
S - Снежный покров - Высота снежного покрова, см. При наведении курсора мыши на число - состояние снежного покрова и степень покрытия местности в баллах.